Voltar ao catálogo

DELTA 1 DEB

AtivoSSO
NORAD 42650·DEBRIS·🇺🇸 United States

Lançado Jun 12, 1975 de Vandenberg Space Force Base

Loading…

Próximas Passagens (próximas 24 horas)

TLE

AtualizadoSource: Space-Track

Época: Sep 14, 2026, 13:06 UTC

1 42650U 75052MK  26257.54619864  .00000407  00000-0  65129-3 0  9998
2 42650  99.7856  15.1210 0232355 159.6119 201.4477 13.44858955626983

Acompanhe DELTA 1 DEB em tempo real com AllMySat

Download on the App Store